Location: Unspecified
(0.0000°N, 0.0000°E)
Time: 06:26:57
(UTC+00:00)

CZ-4B DEB - Visible Passes

Search period start: 08 December 2025 00:00
Search period end: 18 December 2025 00:00
Orbit: 584 x 699 km, 98.8° (Epoch: 29 November)

Date Brightness Start Highest point End Pass type
(mag) Time Alt. Az. Time Alt. Az. Time Alt. Az.
09 Dec ? 19:36:17 14° SSE 19:36:17 14° SSE 19:37:00 10° SSE visible
10 Dec ? 20:00:28 17° S 20:00:28 17° S 20:01:32 10° S visible
11 Dec ? 20:24:39 16° SSW 20:24:39 16° SSW 20:25:27 10° SSW visible
13 Dec ? 19:35:23 13° SSE 19:35:23 13° SSE 19:35:58 10° SSE visible
14 Dec ? 19:59:33 17° S 19:59:33 17° S 20:00:35 10° S visible
15 Dec ? 20:23:44 16° SSW 20:23:44 16° SSW 20:24:34 10° SSW visible
16 Dec ? 20:47:54 10° SW 20:47:54 10° SW 20:47:58 10° SW visible
17 Dec ? 19:34:27 12° SE 19:34:27 12° SE 19:34:53 10° SSE visible
